AirNav   Air Wisconsin Up To $57,000 Bonus
 
 544 users online  

8LL0 Nance Airport
Old Ripley, Illinois, USA

GOING TO OLD RIPLEY?


FAA INFORMATION EFFECTIVE 03 DECEMBER 2020

Location

FAA Identifier: 8LL0
Lat/Long: 38-53-15.1680N 089-33-26.3090W
38-53.252800N 089-33.438483W
38.8875467,-89.5573081
(estimated)
Elevation: 570 ft. / 174 m (estimated)
Variation: 01E (1985)
From city: 1 mile SE of OLD RIPLEY, IL
Time zone: UTC -6 (UTC -5 during Daylight Saving Time)
Zip code: 62275

Airport Operations

Airport use: Private use. Permission required prior to landing
Activation date: 05/1976
Control tower: no
ARTCC: KANSAS CITY CENTER
FSS: COLUMBIA FLIGHT SERVICE STATION
Attendance: UNATNDD
Wind indicator: yes
Segmented circle: no

Airport Communications

WX AWOS-A at GRE (9 nm E): 123.05 (618-664-1939)
WX AWOS-3 at 3LF (17 nm N): 118.175 (217-324-4735)
WX AWOS-A at VLA (19 nm E): 122.8 (618-283-9595)

Nearby radio navigation aids

VOR radial/distance  VOR name  Freq  Var
TOYr058/19.1TROY VORTAC116.0004E
VLAr232/22.2VANDALIA VOR/DME114.3004E
ENLr322/33.7CENTRALIA VORTAC115.0004E

 
NDB name  Hdg/Dist  Freq  Var  ID
CIVIC MEMORIAL092/23.326301WCVM -.-. ...- --

Airport Services

Runway Information

Runway 9/27

Dimensions: 2100 x 70 ft. / 640 x 21 m
Surface: turf
RUNWAY 9  RUNWAY 27
Traffic pattern: leftleft
Obstructions: nonepline, 350 ft. from runway

Airport Ownership and Management from official FAA records

Ownership: Privately-owned
Owner: THOMAS L. NANCE
443 IL RT 140
POCAHONTAS, IL 62275
Phone 618-664-9235
Manager: THOMAS L. NANCE
443 IL RT 140
POCAHONTAS, IL 62275
Phone 618-664-2688

Airport Operational Statistics

Aircraft based on the field: 1
Single engine airplanes: 1
    

Additional Remarks

FOR CD CTC ST LOUIS APCH AT 314-890-1018.

Instrument Procedures

There are no published instrument procedures at 8LL0.

Some nearby airports with instrument procedures:

KGRE - Greenville Airport (9 nm E)
3LF - Litchfield Municipal Airport (17 nm N)
KVLA - Vandalia Municipal Airport (19 nm E)
KALN - St Louis Regional Airport (23 nm W)
KBLV - Scott Air Force Base/MidAmerica Airport (24 nm SW)
 
Loc | Ops | Rwys | IFR | FBO | Links
Com | Nav | Svcs | Stats | Notes
Area around 8LL0 (Nance Airport)
 
Road maps at: MapQuest Bing Google
 
Aerial photo
No photo
 
Sectional chart

 
Airport distance calculator
Flying to Nance Airport? Find the distance to fly.

From to 8LL0

Sunrise and sunset
Times for 05-Dec-2020
 Local
(UTC-6)
 Zulu
(UTC)
Morning civil twilight06:3412:34
Sunrise07:0413:04
Sunset16:3522:35
Evening civil twilight17:0523:05

Current date and time
Zulu (UTC)  05-Dec-2020 11:42:23
Local (UTC-6)  05-Dec-2020 05:42:23
 
METAR
K3LF 
17nm N 
051115Z AUTO 00000KT 10SM CLR M02/M04 A3014 RMK AO2 T10251041
KALN 
22nm W 
051115Z AUTO 00000KT 10SM CLR M02/M02 A3013 RMK AO2 T10201020
KBLV 
25nm SW 
051056Z AUTO 00000KT 10SM CLR M01/M02 A3011 RMK AO2 SLP203 T10141021 $
KENL 
31nm SE 
051115Z AUTO 00000KT 10SM CLR M02/M02 A3012 RMK AO2 T10171023
KSLO 
31nm SE 
051115Z AUTO 00000KT 10SM CLR 00/M01 A3012 RMK AO2 T10011010
KCPS 
34nm SW 
051053Z AUTO 00000KT 10SM CLR M02/M03 A3012 RMK AO2 SLP203 T10221033
TAF
KBLV 
25nm SW 
050800Z 0508/0614 VRB06KT 9999 SKC QNH3006INS BECMG 0603/0605 VRB06KT 9000 BR SCT015 QNH3006INS BECMG 0610/0611 VRB06KT 9000 BR BKN010 620102 QNH3005INS TX09/0521Z TNM01/0513Z
NOTAMs
Click for the latest NOTAMs
NOTAMs are issued by the DoD/FAA and will open in a separate window not controlled by AirNav.

 

 
 

Would you like to see your business listed on this page?

 If your business provides an interesting product or service to pilots, flight crews, aircraft, or users of the Nance Airport, you should consider listing it here.  To start the listing process, click on the button below
 
Add a business
 

Other Pages about Nance Airport

Update a link
 
Copyright © AirNav, LLC. All rights reserved. Privacy Policy  Contact